Panama City Tyndall AFB, FL

8:18 AM CDT on June 27, 2017 (GMT -0500)
Tyndall Air Force Base

Weather History for KPAM - June, 2013

Change the Weather History Date:

Thursday, June 27, 2013

  Actual Average Record
Temperature  
Mean Temperature 84 °F -  
Max Temperature 88 °F 85 °F 93 °F (1998)
Min Temperature 81 °F 72 °F 68 °F (2012)
Cooling Degree Days 20    
Growing Degree Days 34 (Base 50)    
Moisture  
Dew Point 76 °F    
Average Humidity 75    
Maximum Humidity 84    
Minimum Humidity 64    
Precipitation  
Precipitation 0.01 in - - ()
Sea Level Pressure  
Sea Level Pressure 29.98 in    
Wind  
Wind Speed 9 mph (WSW)    
Max Wind Speed 15 mph    
Max Gust Speed -    
Visibility 10 miles    
Events      
Averages and records for this station are not official NWS values.
T = Trace of Precipitation, MM = Missing Value Source: NWS Daily Summary

Daily Weather History Graph

Daily Weather History Graph

Search for Another Location

Airport or City:

Trip Planner

Search our weather history database for the weather conditions in past years. The results will help you decide how hot, cold, wet, or windy it might be!

Date:

Astronomy

Jun. 27, 2013 Rise Set
Actual Time 5:43 AM CDT 7:47 PM CDT
Civil Twilight 5:15 AM CDT 8:15 PM CDT
Nautical Twilight 4:42 AM CDT 8:48 PM CDT
Astronomical Twilight 4:06 AM CDT 9:24 PM CDT
Moon 11:08 PM CDT 10:21 AM CDT
Length of Visible Light 14h 59m
Length of Day
14h 04m
Waning Gibbous, 76% of the Moon is Illuminated
Jun 27
Waning Gibbous
Jun 29
Last Quarter
Jul 8
New
Jul 15
First Quarter
Jul 22
Full

Hourly Weather History & Observations

Time (CDT) Temp. Heat Index Dew Point Humidity Pressure Visibility Wind Dir Wind Speed Gust Speed Precip Events Conditions
12:58 AM 82.0 °F 87.9 °F 73.9 °F 76% 30.02 in 10.0 mi SW 8.1 mph - N/A   Clear
1:58 AM 81.5 °F 86.5 °F 73.0 °F 75% 30.01 in 10.0 mi WSW 8.1 mph - N/A   Clear
2:58 AM 81.7 °F 86.9 °F 73.0 °F 75% 30.01 in 10.0 mi West 6.9 mph - N/A   Clear
3:58 AM 81.3 °F 86.5 °F 73.4 °F 77% 30.01 in 10.0 mi West 8.1 mph - N/A   Partly Cloudy
4:58 AM 81.1 °F 86.0 °F 73.0 °F 76% 30.02 in 10.0 mi West 6.9 mph - N/A   Clear
5:58 AM 81.1 °F 86.2 °F 73.4 °F 77% 30.02 in 10.0 mi WNW 8.1 mph - N/A   Partly Cloudy
6:58 AM 82.4 °F 88.7 °F 74.3 °F 76% 30.03 in 10.0 mi WNW 4.6 mph - 0.01 in   Partly Cloudy
7:58 AM 85.1 °F 92.9 °F 74.3 °F 70% 30.05 in 10.0 mi West 8.1 mph - N/A   Scattered Clouds
8:03 AM 86.0 °F 95.1 °F 75.2 °F 70% 30.04 in 10.0 mi WNW 9.2 mph - N/A   Mostly Cloudy
8:08 AM 84.2 °F 90.9 °F 73.4 °F 70% 30.04 in 10.0 mi West 8.1 mph - N/A   Scattered Clouds
8:23 AM 86.0 °F 95.1 °F 75.2 °F 70% 30.03 in 10.0 mi WSW 9.2 mph - N/A   Mostly Cloudy
8:28 AM 86.0 °F 93.4 °F 73.4 °F 66% 30.03 in 10.0 mi West 9.2 mph - N/A   Mostly Cloudy
8:33 AM 86.0 °F 93.4 °F 73.4 °F 66% 30.03 in 10.0 mi West 6.9 mph - N/A   Mostly Cloudy
8:43 AM 84.2 °F 92.3 °F 75.2 °F 74% 30.03 in 10.0 mi WSW 6.9 mph - N/A   Scattered Clouds
8:58 AM 86.5 °F 93.8 °F 73.2 °F 64% 30.04 in 10.0 mi WSW 8.1 mph - N/A   Mostly Cloudy
9:58 AM 86.7 °F 94.6 °F 73.8 °F 65% 30.03 in 10.0 mi Variable 5.8 mph - N/A   Mostly Cloudy
10:58 AM 87.8 °F 97.1 °F 74.7 °F 65% 30.03 in 10.0 mi SW 8.1 mph - N/A   Mostly Cloudy
11:58 AM 88.3 °F 98.4 °F 75.4 °F 65% 30.03 in 10.0 mi SW 9.2 mph - N/A   Mostly Cloudy
12:58 PM 88.7 °F 99.8 °F 76.1 °F 66% 30.01 in 10.0 mi SW 9.2 mph - N/A   Mostly Cloudy
1:58 PM 87.8 °F 97.1 °F 74.7 °F 65% 30.00 in 10.0 mi SSW 11.5 mph - N/A   Partly Cloudy
2:58 PM 87.8 °F 98.6 °F 76.1 °F 68% 29.98 in 10.0 mi SW 11.5 mph - N/A   Scattered Clouds
3:58 PM 87.4 °F 98.7 °F 76.5 °F 70% 29.97 in 10.0 mi SW 11.5 mph - N/A   Mostly Cloudy
4:58 PM 87.6 °F 99.2 °F 76.6 °F 70% 29.95 in 10.0 mi SW 15.0 mph - N/A   Partly Cloudy
5:58 PM 86.0 °F 96.4 °F 76.3 °F 73% 29.93 in 10.0 mi SW 10.4 mph - N/A   Clear
6:58 PM 84.9 °F 93.7 °F 75.6 °F 73% 29.95 in 10.0 mi WSW 9.2 mph - N/A   Partly Cloudy
7:33 PM 84.2 °F 94.1 °F 77.0 °F 79% 29.94 in 10.0 mi WSW 9.2 mph - N/A   Mostly Cloudy
7:38 PM 84.2 °F 94.1 °F 77.0 °F 79% 29.94 in 10.0 mi WSW 9.2 mph - N/A   Mostly Cloudy
7:58 PM 84.2 °F 93.8 °F 76.8 °F 78% 29.95 in 10.0 mi West 9.2 mph - N/A   Scattered Clouds
8:13 PM 84.2 °F 94.1 °F 77.0 °F 79% 29.95 in 10.0 mi West 8.1 mph - N/A   Mostly Cloudy
8:18 PM 84.2 °F 94.1 °F 77.0 °F 79% 29.95 in 10.0 mi West 10.4 mph - N/A   Mostly Cloudy
8:33 PM 84.2 °F 94.1 °F 77.0 °F 79% 29.94 in 10.0 mi WSW 8.1 mph - N/A   Mostly Cloudy
8:38 PM 84.2 °F 94.1 °F 77.0 °F 79% 29.94 in 10.0 mi West 11.5 mph - N/A   Mostly Cloudy
8:48 PM 84.2 °F 94.1 °F 77.0 °F 79% 29.94 in 10.0 mi WSW 9.2 mph - N/A   Mostly Cloudy
8:58 PM 84.0 °F 94.0 °F 77.4 °F 80% 29.95 in 10.0 mi WSW 9.2 mph - N/A   Mostly Cloudy
9:13 PM 84.2 °F 94.1 °F 77.0 °F 79% 29.94 in 10.0 mi WSW 8.1 mph - N/A   Scattered Clouds
9:58 PM 83.8 °F 93.9 °F 77.5 °F 81% 29.95 in 10.0 mi WSW 10.4 mph - N/A   Partly Cloudy
10:23 PM 84.2 °F 96.1 °F 78.8 °F 84% 29.94 in 10.0 mi WSW 10.4 mph - N/A   Mostly Cloudy
10:33 PM 84.2 °F 96.1 °F 78.8 °F 84% 29.94 in 10.0 mi WSW 9.2 mph - N/A   Scattered Clouds
10:38 PM 84.2 °F 96.1 °F 78.8 °F 84% 29.95 in 10.0 mi WSW 8.1 mph - N/A   Mostly Cloudy
10:58 PM 84.2 °F 95.3 °F 78.3 °F 82% 29.96 in 10.0 mi WSW 12.7 mph - N/A   Mostly Cloudy
11:48 PM 84.2 °F 94.1 °F 77.0 °F 79% 29.94 in 10.0 mi WSW 11.5 mph - N/A   Mostly Cloudy
11:53 PM 84.2 °F 94.1 °F 77.0 °F 79% 29.94 in 10.0 mi WSW 10.4 mph - N/A   Scattered Clouds
11:58 PM 84.0 °F 94.4 °F 77.7 °F 81% 29.94 in 10.0 mi WSW 10.4 mph - N/A   Scattered Clouds